• Join FlightAware (Why Join?)
  • Login
  • US Flag 
11:51PM EST


 

Airport Tracker/Info


-or-


 

Live Flight TrackerFlight Track Log ✈ SWA385 ✈ 17-Jul-2013 ✈ KIAD - KMDW

Flight Track Log - Related Links

Times and Time Zones

All times are in EDT time to prevent confusion due to time zone crossing. See the SWA385 flight status page for this flight to view local times or setup timezone preferences in your user account.

Time Position Orientation Groundspeed Altitude Reporting Facility
EDT Latitude Longitude Course Direction KTS MPH feet Rate Location/Type
05:35PM 38.9333 -77.5333 288° West 189 217 2,100  Level Potomac TRACON
05:36PM 38.9167 -77.6167 256° West 258 297 4,100 2,250 Climbing Potomac TRACON
05:36PM 38.8969 -77.6961 252° West 263 303 6,300 3,080 Climbing Washington Center
05:38PM 38.8683 -77.7939 249° West 293 337 9,900 3,197 Climbing Washington Center
05:39PM 38.9253 -77.8622 317° Northwest 240 276 12,800 2,777 Climbing Washington Center
05:40PM 38.8373 -78.1492 288° West  Level FlightAware Approximate
05:40PM 38.9486 -77.9458 290° West 257 296 15,500  Level Washington Center
05:40PM 38.9089 -78.0592 246° West 275 316 17,000 1,932 Climbing Washington Center
05:41PM 38.8728 -78.1914 251° West 339 390 19,300 2,281 Climbing Washington Center
05:43PM 38.8656 -78.3325 266° West 380 437 21,600 1,339 Climbing Washington Center
05:44PM 38.8808 -78.4797 278° West 401 461 22,000 1,059 Climbing Washington Center
05:44PM 38.8981 -78.6297 278° West 416 479 23,700 2,218 Climbing Washington Center
05:45PM 38.9131 -78.7769 278° West 421 484 26,400 2,033 Climbing Washington Center
05:47PM 38.9275 -78.9297 277° West 427 491 27,800 1,289 Climbing Washington Center
05:48PM 38.9458 -79.0908 278° West 439 505 29,000 1,736 Climbing Washington Center
05:49PM 38.9833 -79.2369 288° West 439 505 31,300 1,488 Climbing Washington Center
05:50PM 39.0267 -79.3806 291° West 439 505 32,000 359 Climbing Washington Center
05:50PM 39.0386 -79.5336 276° West 429 494 32,000  Level Washington Center
05:51PM 39.0500 -79.6867 276° West 435 501 32,000  Level Washington Center
05:52PM 39.0594 -79.8367 275° West 430 495 32,000  Level Washington Center
05:54PM 39.0692 -80.0539 273° West 423 487 32,000  Level Indianapolis Center
05:55PM 39.0800 -80.2233 275° West 421 484 32,000  Level Indianapolis Center
05:56PM 39.0889 -80.3717 274° West 419 482 32,000  Level Indianapolis Center
05:57PM 39.0978 -80.5231 274° West 423 487 32,000 290 Level Indianapolis Center
05:58PM 39.1061 -80.6769 274° West 432 497 32,600 1,113 Climbing Indianapolis Center
05:59PM 39.1172 -80.8686 274° West 448 516 34,300 1,548 Climbing Indianapolis Center
06:00PM 39.1256 -81.0281 274° West 451 519 35,800 1,500 Climbing Indianapolis Center
06:01PM 39.1439 -81.1869 279° West 453 521 37,400 1,065 Climbing Indianapolis Center
06:02PM 39.1681 -81.3419 281° West 447 514 38,000 290 Climbing Indianapolis Center
06:03PM 39.1914 -81.4961 281° West 444 511 38,000  Level Indianapolis Center
06:04PM 39.2189 -81.6822 281° West 445 512 38,000  Level Indianapolis Center
06:05PM 39.2417 -81.8386 281° West 446 513 38,000  Level Indianapolis Center
06:06PM 39.2647 -81.9947 281° West 446 513 38,000  Level Indianapolis Center
06:07PM 39.2867 -82.1511 280° West 446 513 38,000  Level Indianapolis Center
06:08PM 39.3389 -82.2958 295° West 454 522 38,000  Level Indianapolis Center
06:10PM 39.4144 -82.4222 308° West 447 514 38,000  Level Indianapolis Center
06:11PM 39.5011 -82.5689 307° West 444 511 38,000  Level Indianapolis Center
06:12PM 39.5764 -82.6972 307° West 444 511 38,000  Level Indianapolis Center
06:13PM 39.6506 -82.8253 307° West 442 509 38,000  Level Indianapolis Center
06:14PM 39.7261 -82.9533 308° West 442 509 38,000  Level Indianapolis Center
06:15PM 39.8136 -83.1036 307° West 443 510 38,000  Level Indianapolis Center
06:16PM 39.8881 -83.2306 307° West 442 509 38,000  Level Indianapolis Center
06:17PM 39.9631 -83.3597 307° West 449 517 38,000  Level Indianapolis Center
06:18PM 40.0369 -83.4917 306° West 454 522 38,000  Level Indianapolis Center
06:19PM 40.1111 -83.6225 307° West 450 518 38,000  Level Indianapolis Center
06:20PM 40.1994 -83.7764 307° West 450 518 38,000  Level Indianapolis Center
06:21PM 40.2744 -83.9108 306° West 455 524 38,000 -532 Level Indianapolis Center
06:22PM 40.3489 -84.0433 306° West 449 517 36,900 -1,403 Descending Indianapolis Center
06:23PM 40.4239 -84.1758 307° West 450 518 35,100 -2,032 Descending Indianapolis Center
06:24PM 40.4983 -84.3100 306° West 451 519 32,700 -1,597 Descending Indianapolis Center
06:25PM 40.5736 -84.4467 306° West 455 524 31,800 -871 Descending Indianapolis Center
06:26PM 40.6486 -84.5825 306° West 455 524 30,900 -871 Descending Indianapolis Center
06:27PM 40.7439 -84.7347 310° West 458 527 30,000 -435 Descending Indianapolis Center
06:28PM 40.8222 -84.8622 309° West 446 513 30,000  Level Indianapolis Center
06:29PM 40.8550 -84.9144 310° West 448 516 30,000 -522 Level Chicago Center
06:30PM 40.9358 -85.0467 309° West 460 529 29,200 -871 Descending Chicago Center
06:31PM 41.0167 -85.1808 309° West 465 535 28,200 -629 Descending Chicago Center
06:32PM 41.1131 -85.3383 309° West 459 528 27,900 -871 Descending Chicago Center
06:33PM 41.1878 -85.4636 308° West 442 509 26,400 -1,824 Descending Chicago Center
06:34PM 41.2581 -85.5819 308° West 412 474 24,100 -1,248 Descending Chicago Center
06:35PM 41.3292 -85.7011 308° West 408 470 23,800 -1,355 Descending Chicago Center
06:36PM 41.4008 -85.8233 308° West 414 476 21,300 -2,468 Descending Chicago Center
06:37PM 41.4350 -85.9644 288° West 401 461 18,700 -2,419 Descending Chicago Center
06:38PM 41.4642 -86.1044 286° West 393 452 16,300 -2,613 Descending Chicago Center
06:39PM 41.4961 -86.2656 285° West 378 435 13,300 -2,516 Descending Chicago Center
06:40PM 41.5219 -86.3986 285° West 372 428 11,100 -1,210 Descending Chicago Center
06:41PM 41.5214 -86.5256 270° West 348 400 10,800 -484 Descending Chicago Center
06:42PM 41.5206 -86.6494 270° West 337 388 10,100 -629 Descending Chicago Center
06:43PM 41.5200 -86.7725 270° West 302 348 9,500 -768 Descending Chicago Center
06:44PM 41.5203 -86.8775 270° West 286 329 8,500 -912 Descending Chicago Center
06:45PM 41.5178 -86.9817 268° West 285 328 7,600 -968 Descending Chicago Center
06:46PM 41.5272 -87.0797 277° West 273 314 6,500 -774 Descending Chicago Center
06:47PM 41.5586 -87.1917 291° West 271 312 6,000 -435 Descending Chicago Center
06:48PM 41.5825 -87.2836 289° West 266 306 5,600 -768 Descending Chicago Center
06:49PM 41.6086 -87.3778 290° West 270 311 4,400 -774 Descending Chicago Center
06:50PM 41.6319 -87.4681 289° West 265 305 4,000 -195 Descending Chicago Center
06:51PM 41.6572 -87.5647 289° West 248 285 4,000 -435 Level Chicago Center
06:52PM 41.6925 -87.6214 310° West 223 257 3,100 -871 Descending Chicago Center
06:53PM 41.7281 -87.6728 313° West 205 236 2,200 -816 Descending Chicago Center
06:54PM 41.7553 -87.7106 314° West 173 199 1,400 -576 Descending Chicago Center
06:56PM 41.7825 -87.7497 313° West 153 176 1,000 -387 Descending Chicago Center